[[{"header":{"parameterUnit":"m.s-1","parameterCategory":1,"la1":30.2991,"la2":30.254,"lo1":-89.0895,"lo2":-89.0444,"dy":0.0017,"dx":0.0017,"nx":28,"ny":28,"refTime":"2026-01-02T09:00:00:Z","depth":0,"parameterNumber":2,"parameterNumberName":"U-component_of_WINDS"},"data":[0,0,0,0,0,0,0,0,0,0,0,0,0,0,0,0,0,0,0,0,0,0,0,0,0,0,0,0,0,0,0,0,0,0,0,0,0,0,0,0,0,0,0,0,0,0,0,0,0,0,0,0,0,0,0,0,0,0,1.4188,1.4188,0,1.4206,1.4206,1.4206,1.4161,1.416,1.4158,1.4157,1.4181,1.4183,1.4185,0,0,0,0,0,0,0,0,0,0,0,0,0,1.4119,1.4121,1.4188,1.4188,1.4188,1.4206,1.4206,1.4206,1.4161,1.4159,1.4158,1.4156,1.418,1.4182,1.4185,0,0,0,0,0,0,0,0,0,0,0,0,0,1.4145,1.4121,1.4187,1.4167,1.4166,1.4206,1.4206,1.4206,1.4162,1.4159,1.4157,1.4155,1.4179,1.4182,1.4185,1.4247,0,0,1.4194,1.4196,0,0,0,0,0,0,0,0,1.4143,1.4147,1.417,1.4169,1.4167,1.4179,1.4191,1.422,1.4162,1.4163,1.4157,1.4154,1.4182,1.4185,1.4193,1.4248,1.4249,1.4195,1.4196,1.4198,1.4198,0,0,0,0,0,0,0,1.4141,1.4146,1.4195,1.4171,1.4169,1.4159,1.4161,1.4196,1.4185,1.4163,1.416,1.4162,1.4181,1.419,1.4193,1.4249,1.4194,1.4197,1.4199,1.42,1.4358,1.436,0,0,0,0,0,0,1.4142,1.4145,1.4194,1.4195,1.4149,1.4162,1.4164,1.4177,1.4184,1.4183,1.4164,1.416,1.4186,1.419,1.4194,1.4268,1.4198,1.42,1.4202,1.4355,1.4358,1.4361,0,0,0,0,0,0,1.414,1.4146,1.4194,1.4169,1.4174,1.4166,1.4182,1.4179,1.4188,1.4185,1.4183,1.4176,1.4185,1.419,1.4234,1.4269,1.4202,1.4204,1.4353,1.4356,1.436,1.4417,0,0,0,0,0,0,1.4138,1.4146,1.4168,1.417,1.4176,1.4232,1.4184,1.4181,1.4193,1.4188,1.4195,1.4195,1.4184,1.423,1.4237,1.4272,1.4207,1.435,1.4354,1.4359,1.4412,1.4422,1.443,0,0,0,0,0,1.4136,1.4184,1.4169,1.4176,1.4203,1.4234,1.4237,1.4222,1.4196,1.4219,1.4217,1.4194,1.4263,1.4235,1.4243,1.4278,1.4347,1.4353,1.4358,1.4408,1.442,1.443,0,0,0,0,0,0,1.4189,1.4184,1.4168,1.4217,1.4226,1.4226,1.4255,1.4236,1.4253,1.4248,1.423,1.4232,1.4281,1.4284,1.4252,1.4339,1.4301,1.4308,1.4336,1.4348,1.4357,1.4356,1.4209,0,0,0,0,0,1.4205,1.4229,1.4224,1.4269,1.4274,1.4264,1.4277,1.4264,1.4273,1.4277,1.4278,1.429,1.4314,1.4331,1.4353,1.4411,1.4414,1.444,1.4449,1.4457,1.4464,1.4498,1.451,1.4379,1.4379,1.4379,0,0,1.4242,1.4242,1.4258,1.428,1.4285,1.4312,1.4267,1.4297,1.4318,1.4282,1.4324,1.4326,1.4337,1.4389,1.4413,1.4393,1.4501,1.4464,1.447,1.4473,1.4505,1.4517,1.4528,1.4382,1.4382,1.4381,0,0,1.4322,1.4323,1.4361,1.4367,1.4375,1.4368,1.4377,1.438,1.4379,1.442,1.4395,1.442,1.4461,1.4471,1.4482,1.4565,1.4546,1.4573,1.4623,1.4656,1.4666,1.4675,1.4708,1.4719,1.458,1.458,1.458,0,1.4366,1.4404,1.4384,1.4416,1.4427,1.4394,1.4434,1.4441,1.4456,1.4466,1.4443,1.4496,1.4501,1.4556,1.4577,1.4585,1.4597,1.4573,1.4666,1.4675,1.4683,1.4714,1.4726,1.4583,1.4583,1.4583,1.4582,0,1.4459,1.4486,1.4516,1.453,1.4545,1.458,1.4568,1.4585,1.4571,1.4567,1.4611,1.4616,1.4639,1.4651,1.4638,1.4705,1.4693,1.4668,1.463,1.4699,1.4728,1.474,1.4588,1.4587,1.4586,1.4585,0,0,1.4574,1.4576,1.4588,1.4595,1.4601,1.4623,1.4658,1.4679,1.4695,1.4707,1.4738,1.4773,1.4751,1.4763,1.4751,1.478,1.4849,1.4752,1.4752,1.4772,1.4926,1.4946,1.496,1.4835,1.4837,1.4839,1.4926,0,1.4655,1.4713,1.4696,1.4756,1.4782,1.4751,1.4782,1.479,1.4787,1.481,1.4807,1.4834,1.4801,1.4809,1.4835,1.4835,1.488,1.4828,1.4866,1.4868,1.4867,1.4974,1.4996,1.5077,1.4937,1.4938,1.494,0,1.4757,1.4772,1.4834,1.4837,1.4847,1.4875,1.4893,1.4915,1.4925,1.4921,1.4934,1.4916,1.4953,1.4913,1.4965,1.493,1.4944,1.4947,1.4949,1.4955,1.491,1.4985,1.5103,1.5116,1.4957,1.4955,1.4954,0,1.4838,1.4873,1.4915,1.4921,1.4925,1.4946,1.4949,1.4956,1.497,1.4987,1.4997,1.5018,1.5031,1.5049,1.5038,1.5009,1.5094,1.5051,1.5094,1.5094,1.5115,1.5114,1.524,1.512,1.512,1.512,1.5119,0,1.4932,1.4972,1.4951,1.4978,1.5022,1.5002,1.5048,1.5047,1.5054,1.5081,1.5055,1.5082,1.5065,1.5091,1.5083,1.5129,1.5134,1.5134,1.5132,1.5138,1.5139,1.5149,1.5145,1.5123,1.5122,1.5122,1.5121,0,1.5031,1.5018,1.5062,1.5062,1.5063,1.5096,1.5096,1.5122,1.5116,1.5151,1.5159,1.5151,1.518,1.5171,1.5203,1.5197,1.5257,1.5246,1.5253,1.5252,1.5295,1.5293,1.5434,1.5453,1.5319,1.532,1.5321,0,1.5092,1.5122,1.5124,1.514,1.5144,1.5169,1.5183,1.5166,1.5182,1.5195,1.522,1.5246,1.5267,1.5315,1.5314,1.5339,1.533,1.5378,1.5334,1.534,1.5334,1.5334,1.5338,1.5388,1.539,1.5391,1.5392,0,1.5204,1.5197,1.5217,1.5235,1.5252,1.5266,1.5279,1.5293,1.5276,1.5296,1.5325,1.534,1.5372,1.54,1.5422,1.5428,1.5409,1.5405,1.5417,1.5425,1.5429,1.543,1.528,1.5403,1.5402,1.5401,1.54,1.54,1.5288,1.5314,1.532,1.5344,1.535,1.5362,1.5386,1.5383,1.5406,1.543,1.5418,1.5452,1.5463,1.549,1.5498,1.5526,1.5508,1.5524,1.5529,1.5534,1.5541,1.5422,1.553,1.553,1.5529,1.5529,1.5529,0,1.5401,1.5403,1.5425,1.5442,1.5461,1.5438,1.545,1.5469,1.5498,1.5509,1.5529,1.5563,1.559,1.559,1.5616,1.5638,1.563,1.5646,1.5646,1.5648,1.5554,1.5543,1.5652,1.5652,1.5652,1.5652,1.5652,1.5652,1.5462,1.5505,1.5498,1.5545,1.5547,1.5578,1.5588,1.56,1.5608,1.5646,1.5668,1.5667,1.5674,1.57,1.5724,1.5724,1.5736,1.5756,1.5753,1.5666,1.5654,1.5642,1.5632,1.5758,1.5758,1.5844,1.5845,1.5846]},{"header":{"parameterUnit":"m.s-1","parameterCategory":1,"la1":30.2991,"la2":30.254,"lo1":-89.0895,"lo2":-89.0444,"dy":0.0017,"dx":0.0017,"nx":28,"ny":28,"refTime":"2026-01-02T09:00:00:Z","depth":0,"parameterNumber":3,"parameterNumberName":"V-component_of_WINDS"},"data":[0,0,0,0,0,0,0,0,0,0,0,0,0,0,0,0,0,0,0,0,0,0,0,0,0,0,0,0,0,0,0,0,0,0,0,0,0,0,0,0,0,0,0,0,0,0,0,0,0,0,0,0,0,0,0,0,0,0,-2.611,-2.611,0,-2.606,-2.6059,-2.6059,-2.6061,-2.6061,-2.6062,-2.6063,-2.6009,-2.6007,-2.6005,0,0,0,0,0,0,0,0,0,0,0,0,0,-2.6208,-2.6206,-2.611,-2.611,-2.6109,-2.606,-2.6059,-2.6058,-2.606,-2.6061,-2.6062,-2.6063,-2.601,-2.6007,-2.6005,0,0,0,0,0,0,0,0,0,0,0,0,0,-2.6162,-2.6205,-2.6111,-2.6104,-2.6103,-2.606,-2.6059,-2.6058,-2.606,-2.6061,-2.6062,-2.6063,-2.6011,-2.6007,-2.6004,-2.5963,0,0,-2.5995,-2.5993,0,0,0,0,0,0,0,0,-2.6165,-2.6159,-2.6106,-2.6105,-2.6103,-2.6068,-2.6074,-2.6026,-2.606,-2.6077,-2.6063,-2.6064,-2.6028,-2.6023,-2.6011,-2.5961,-2.5959,-2.5994,-2.5993,-2.5991,-2.599,0,0,0,0,0,0,0,-2.6168,-2.6161,-2.609,-2.6105,-2.6104,-2.6104,-2.6098,-2.6065,-2.6047,-2.6075,-2.6075,-2.6069,-2.6027,-2.6014,-2.601,-2.5958,-2.5995,-2.5992,-2.599,-2.5989,-2.5871,-2.587,0,0,0,0,0,0,-2.6173,-2.6163,-2.6092,-2.6089,-2.6137,-2.6101,-2.6095,-2.6078,-2.6047,-2.6043,-2.6068,-2.607,-2.6019,-2.6014,-2.6008,-2.5958,-2.5991,-2.5988,-2.5986,-2.5872,-2.5871,-2.587,0,0,0,0,0,0,-2.6175,-2.6166,-2.6094,-2.6126,-2.6117,-2.6098,-2.6079,-2.6076,-2.6064,-2.6042,-2.6038,-2.6059,-2.602,-2.6012,-2.5975,-2.5956,-2.5987,-2.5984,-2.5874,-2.5872,-2.587,-2.5857,0,0,0,0,0,0,-2.6177,-2.6167,-2.6151,-2.6126,-2.6115,-2.6062,-2.6078,-2.6075,-2.6058,-2.6059,-2.6032,-2.6028,-2.602,-2.5979,-2.5971,-2.5952,-2.5982,-2.5875,-2.5873,-2.5871,-2.5859,-2.5855,-2.5851,0,0,0,0,0,-2.6181,-2.6149,-2.6151,-2.6142,-2.6096,-2.6061,-2.6055,-2.6046,-2.6057,-2.6041,-2.6027,-2.6029,-2.5959,-2.5975,-2.5967,-2.5946,-2.5877,-2.5874,-2.5871,-2.586,-2.5855,-2.5851,0,0,0,0,0,0,-2.6173,-2.6146,-2.6147,-2.6106,-2.6086,-2.6061,-2.6041,-2.6041,-2.6017,-2.6019,-2.6009,-2.6003,-2.5964,-2.5952,-2.597,-2.5905,-2.5919,-2.5915,-2.5914,-2.5909,-2.5906,-2.5909,-2.5979,0,0,0,0,0,-2.6166,-2.6141,-2.6118,-2.6085,-2.6074,-2.6059,-2.6044,-2.6039,-2.6017,-2.6009,-2.5992,-2.597,-2.5943,-2.5926,-2.59,-2.5857,-2.5851,-2.5839,-2.5835,-2.5832,-2.5828,-2.5804,-2.5798,-2.586,-2.586,-2.5861,0,0,-2.6152,-2.6135,-2.6119,-2.6083,-2.6066,-2.6039,-2.6052,-2.6023,-2.6003,-2.6004,-2.5967,-2.5954,-2.5929,-2.5889,-2.587,-2.5877,-2.5809,-2.5828,-2.5826,-2.5823,-2.58,-2.5794,-2.5789,-2.5859,-2.5859,-2.5859,0,0,-2.6113,-2.6098,-2.6067,-2.6051,-2.6026,-2.6017,-2.6009,-2.5985,-2.5976,-2.5939,-2.594,-2.5915,-2.587,-2.5852,-2.5837,-2.5791,-2.5792,-2.5783,-2.5763,-2.574,-2.5735,-2.573,-2.5714,-2.5708,-2.5779,-2.5779,-2.5779,0,-2.6099,-2.6059,-2.6052,-2.6023,-2.6006,-2.6007,-2.5976,-2.5961,-2.5928,-2.5917,-2.5925,-2.5868,-2.5851,-2.5806,-2.5795,-2.5783,-2.5774,-2.5786,-2.5736,-2.5732,-2.5728,-2.5711,-2.5705,-2.5778,-2.5778,-2.5779,-2.5779,0,-2.6042,-2.6015,-2.5993,-2.5963,-2.5944,-2.5914,-2.5902,-2.5884,-2.5882,-2.5871,-2.5833,-2.5814,-2.5784,-2.5773,-2.577,-2.5727,-2.5732,-2.5739,-2.5753,-2.5721,-2.5705,-2.5699,-2.5777,-2.5777,-2.5778,-2.5778,0,0,-2.5995,-2.5962,-2.5954,-2.594,-2.5913,-2.5891,-2.5862,-2.5833,-2.5818,-2.5796,-2.577,-2.5732,-2.5737,-2.572,-2.5715,-2.5695,-2.566,-2.5704,-2.5703,-2.5695,-2.5611,-2.5606,-2.5599,-2.5661,-2.5659,-2.5659,-2.5613,0,-2.5953,-2.59,-2.5893,-2.5847,-2.5821,-2.5821,-2.5795,-2.5776,-2.5765,-2.5741,-2.573,-2.5702,-2.5712,-2.5702,-2.5682,-2.5668,-2.5643,-2.5672,-2.5636,-2.5635,-2.5641,-2.5591,-2.5585,-2.5544,-2.5607,-2.5606,-2.5605,0,-2.5896,-2.5873,-2.5824,-2.58,-2.5789,-2.5766,-2.5739,-2.5717,-2.5695,-2.5688,-2.567,-2.5667,-2.5636,-2.5653,-2.5609,-2.5629,-2.5614,-2.5605,-2.5603,-2.5599,-2.5617,-2.5584,-2.553,-2.5523,-2.5596,-2.5597,-2.5597,0,-2.5865,-2.5822,-2.5787,-2.5776,-2.5748,-2.5731,-2.5719,-2.5698,-2.5681,-2.5658,-2.5647,-2.562,-2.5605,-2.5584,-2.5574,-2.5587,-2.5531,-2.5547,-2.5524,-2.5524,-2.5511,-2.5512,-2.5453,-2.5503,-2.5503,-2.5503,-2.5504,0,-2.5818,-2.5788,-2.5773,-2.5752,-2.5718,-2.571,-2.5677,-2.5665,-2.5646,-2.5622,-2.5621,-2.5598,-2.5587,-2.5562,-2.5554,-2.5519,-2.5513,-2.5506,-2.5504,-2.5506,-2.5506,-2.5495,-2.5497,-2.5502,-2.5502,-2.5502,-2.5503,0,-2.5778,-2.5767,-2.5729,-2.5706,-2.57,-2.5676,-2.5656,-2.5635,-2.5625,-2.5594,-2.5586,-2.557,-2.5541,-2.553,-2.5494,-2.5489,-2.5448,-2.5449,-2.5456,-2.5455,-2.5433,-2.5434,-2.5363,-2.5353,-2.5411,-2.5411,-2.541,0,-2.5748,-2.5725,-2.5699,-2.5683,-2.5671,-2.5645,-2.5628,-2.562,-2.5602,-2.5575,-2.5557,-2.5528,-2.5505,-2.5458,-2.5443,-2.5416,-2.5415,-2.5392,-2.5411,-2.5413,-2.5414,-2.5415,-2.5413,-2.5389,-2.5388,-2.5388,-2.5387,0,-2.5695,-2.5691,-2.5667,-2.5641,-2.5621,-2.56,-2.558,-2.5567,-2.5555,-2.5535,-2.5506,-2.5488,-2.5452,-2.5423,-2.5395,-2.5382,-2.5382,-2.5382,-2.5375,-2.5375,-2.538,-2.5376,-2.5445,-2.5383,-2.5383,-2.5384,-2.5384,-2.5384,-2.5658,-2.5638,-2.5617,-2.559,-2.5574,-2.5555,-2.5534,-2.5522,-2.5498,-2.5468,-2.5465,-2.5433,-2.5412,-2.5374,-2.536,-2.5335,-2.534,-2.5331,-2.5328,-2.5326,-2.5324,-2.5385,-2.533,-2.533,-2.533,-2.533,-2.533,0,-2.5605,-2.5592,-2.5568,-2.5539,-2.5518,-2.5522,-2.5499,-2.5481,-2.5454,-2.5434,-2.5411,-2.5377,-2.5349,-2.5333,-2.5305,-2.5288,-2.5287,-2.528,-2.5281,-2.5278,-2.532,-2.5329,-2.5281,-2.5281,-2.5281,-2.5281,-2.5281,-2.5281,-2.5575,-2.554,-2.5533,-2.5491,-2.5478,-2.5447,-2.5434,-2.5416,-2.5401,-2.5363,-2.534,-2.533,-2.5311,-2.5282,-2.5256,-2.5252,-2.5241,-2.5234,-2.523,-2.527,-2.5275,-2.528,-2.5287,-2.5232,-2.5232,-2.519,-2.5189,-2.5189]}]]